Tracking 26492 objects as of 8-Dec-2022
HD Live streaming from Space Station
objects crossing your sky now

STARLINK-4699

Track STARLINK-4699 now!
10-day predictions
STARLINK-4699 is classified as:


NORAD ID: 53716
Int'l Code: 2022-107S
Perigee: 545.7 km
Apogee: 548.4 km
Inclination: 53.2 °
Period: 95.4 minutes
Semi major axis: 6918 km
RCS: Unknown
Launch date: September 5, 2022
Source: United States (US)
Launch site: AIR FORCE EASTERN TEST RANGE (AFETR)
aabbcc
Your satellite tracking list
Your tracking list is empty




NASA's NSSDC Master Catalog

Two Line Element Set (TLE):
1 53716U 22107S   22341.97546702 -.00009188  00000-0 -56078-3 0  9993
2 53716  53.2169 185.6402 0002003  57.4327 302.6858 15.08781864 14655
Source of the keplerian elements: AFSPC